User: anonymous   Login
Location: Unspecified
(0.0000°N, 0.0000°E)
Time: 13:43:51
(UTC+00:00)
Language:

ITAMSAT 1 - Orbit

View from above orbital plane
View from above orbital plane
View from above satellite
View from above satellite

Ground track
Ground track

The orbit data is extracted from the following two-line orbital elements,

1 22826U 93061D   17111.84089577 +.00000021 +00000-0 +25566-4 0  9999
2 22826 098.8009 076.8363 0009829 122.5467 237.6666 14.30321245229277
Epoch (UTC): 21 April 2017 20:10:53
Eccentricity: 0.0009829
inclination: 98.8009°
perigee height: 783 km
apogee height: 798 km
right ascension of ascending node: 76.8363°
argument of perigee: 122.5467°
revolutions per day: 14.30321245
mean anomaly at epoch: 237.6666°
orbit number at epoch: 22927

The dashed part of the orbit path shows where the satellite is in the earth's shadow,  

DLR